STARLINK-1042, 44747

Orbit data source: Space-Track

STARLINK-1042, 44747 is a payload satellite owned by SpaceX/Seattle (US) in LEO that was launched on Mon, 11 Nov 2019 UTC via an FALCON 9 launch vehicle from the Air Force Eastern Test Range (AFETR). Payload-class satellites include a variety of spacecraft equipped with specific instruments for various scientific and technological missions. These include communications satellites like Starlink; space stations such as the ISS; scientific satellites like the Hubble; Earth observation satellites from companies like Planet Labs, Umbra, and HawkEye 360; GPS; miniature CubeSats for education and research; and military/defense satellites.

Loading next visibility...
Identifier
44747, 2019-074AL
Orbit
LEO
Country
Flag of USUS
Related business
Manufacturer
SpaceX/Seattle
Mission
Partially operational Commercial Communications
Bus & Motor
STARLINK, Unknown motor
Mass
260 kg wet, ~248 kg dry
Launch date (UTC)
2019-11-11 (6 years ago)
Launch vehicle
FALCON 9
Launch site
Air Force Eastern Test Range (AFETR)
Object type
Payload
Rocket body
Debris
Shape & HBR
Box + 1 Pan, 10.1 m
Radar Cross Section
13.562 m², Large (>1 m²)

Expand to show TLE details & history
Last TLE update: 21 hours ago

TLE from 21 hours ago
0 STARLINK-1042
1 44747U 19074AL  25307.50557184  .00019612  00000-0  44299-3 0  9999
2 44747  53.0471 337.1773 0003338  94.8523 265.2863 15.43218125330546
Epoch: 2025-11-03T12:08Z
TLE epoch observation values (Epoch: 2025-11-03T12:08:01.406Z)
Latitude
-0.00006°
Longitude
112.16542°
Altitude
437.699 km
Speed
7.65 km/s
True Right ascension
22h 28m 42s
True Declination
0° 00' 00"
Sunlit
Object was in full shadow at epoch
Visualization orbit readout
Latitude
Unknown
Longitude
Unknown
Altitude
Unknown
Speed
Unknown
Apparent Right ascension
Unknown
Apparent Declination
Unknown
Sunlit
N/A
Visualization observer readout
Local Sidereal Time
05:00:12
Azimuth
Unknown
Elevation
Unknown
Doppler factor
Unknown
Orbital elements
Apogee altitude
439.17 km
Perigee altitude
434.62 km
Semi-major axis
6,815.032 km
Eccentricity
0.00033
Inclination
53.0471°
RAAN
337.1773°
Arg. of periapsis
94.8523°
True anomaly
265.24818°
Mean anomaly
265.2863°
Eccentric anomaly
265.26724°
Mean motion
3.85781 °/min
Orbital period
93.32 mins
BSTAR
0.00044299
Loading maneuver chart data...
Computing Atmospheric mass density...
Loading historical data...
Loading historical data...
Loading historical data...
Loading historical data...
Loading historical data...
Loading historical data...
Loading historical data...

Documentation

Showing up to 5 results
|